Find Starlink 6245

NORAD ID: 57079 Int'l Des: 2023-088 Owner: SPXS Country: US Constellation: starlink operational
LEOCIRCULAR

現在のビュー

3D地球を読み込み中...

About Starlink 6245

Starlink 6245 (NORAD 57079) is a starlink constellation satellite (v1.5) launched Jun 22, 2023 by SPXS of US. It operates in LEO, CIRCULAR orbit with a mass of 305.00 kg.

Starlink 6245について

説明を読み込み中...

次回通過

Passes for default location (London). Set your location on the main map for personalized predictions.

高度履歴

Loading altitude history...

軌道要素

1 57079U 23088AH 26194.95364551 -.00000769 00000-0 -18411-4 0 9992
2 57079 43.0050 102.8129 0001363 258.1440 101.9258 15.27577978169811
Epoch: Jul 13, 2026 • Age: 16 hours

現在のステータス

高度 485.5 km
遠地点 / 近地点 N/A
速度 7.62 km/s
衛星直下点 -14.27°S, 66.4°W
打ち上げ日 Jun 22, 2023
運用期間 3 years
タイプ internet

技術仕様

分類 Payload
質量 305.00 kg
乾燥質量 290.00 kg
総質量 305.00 kg
長さ 0.20 m
直径 2.80 m
スパン 9.00 m
形状 Box + pan
製造者 SPXS
バスタイプ Starlink
フェーズステータス In Orbit
所有者/国 SPXS/US

Most Searched